Temp
11 11 11 11 11 12 13 14 16 18 18 18 19 19 19 19 20 20 20 21 21 21 22 22 22 22 23 23 23 23 24 24 24 24 23 23 24 24 25 25 25 25 25 25 25 25 25 25 26 26 26 26 25 25 25 24 24 25 25 25 23 23 24 25 25 25 25 24 25 25 25 25 25 25 24 24 24 22 20 19 18 18 18 18 18 18 18 18
10 12 12 13 12 13 13 13 14 16 17 17 18 19 19 19 19 20 20 21 21 21 22 22 22 22 22 23 22 23 23 24 24 23 23 24 24 25 25 25 25 25 25 25 25 24 24 25 25 25 26 25 25 25 25 24 25 25 25 24 23 24 24 25 25 24 25 25 25 25 25 25 25 25 24 25 24 22 21 19 18 18 18 18 18 18 17 17
10 11 13 13 13 14 14 14 15 16 16 16 17 18 19 19 19 20 20 20 21 21 21 22 22 22 22 22 22 22 23 23 24 24 24 24 24 25 25 25 25 25 25 25 25 25 25 25 25 25 26 26 25 25 25 25 25 25 25 24 24 25 24 24 25 24 24 24 25 25 25 25 25 25 24 24 24 23 22 20 19 18 17 17 17 17 17 16
9 10 12 12 14 14 14 15 15 16 16 16 17 18 19 19 19 20 20 20 20 21 21 22 22 22 22 22 21 22 22 23 24 24 24 24 24 24 24 24 24 25 25 25 25 25 25 25 25 25 25 25 26 26 26 25 25 25 25 25 25 25 24 23 24 24 24 24 25 24 24 25 24 24 25 24 24 22 21 19 19 19 17 17 17 16 16 15
10 10 11 11 12 13 14 15 16 16 17 18 18 19 19 19 19 20 20 20 20 21 21 21 22 22 22 22 21 21 22 23 24 24 24 24 24 24 24 24 24 24 25 25 25 25 25 25 25 25 25 25 25 25 25 25 25 25 25 25 25 25 24 23 24 24 24 24 24 24 24 24 24 24 24 24 24 23 20 19 19 18 17 17 16 15 15 14
9 9 10 10 10 12 13 14 16 18 18 19 19 19 19 19 19 19 20 20 20 21 21 21 21 22 22 21 21 21 23 24 24 24 24 24 24 24 24 24 24 24 25 25 25 25 25 25 25 25 25 25 25 25 25 25 25 25 25 24 24 24 24 24 24 24 24 24 24 24 23 23 24 24 24 24 23 21 18 18 18 17 17 16 16 15 14 13
9 9 9 9 10 11 12 13 16 17 17 18 19 19 20 19 19 19 19 20 20 20 21 21 21 22 22 22 21 21 22 24 24 24 24 24 24 24 24 24 24 24 24 24 25 24 24 25 25 25 25 25 25 25 25 25 25 25 24 24 24 24 24 24 24 24 24 24 24 23 23 23 24 23 23 22 19 18 17 16 16 17 16 16 15 14 13 13
9 9 9 9 9 10 11 13 14 14 14 16 18 19 19 19 19 19 19 19 20 20 20 20 21 21 22 22 22 22 23 24 24 24 24 24 24 24 24 24 24 24 24 24 24 24 24 24 24 24 25 24 25 25 24 25 24 24 24 24 24 24 24 24 24 23 24 24 23 23 23 23 23 23 23 21 17 17 17 16 16 16 15 15 15 14 13 13
9 9 9 9 9 10 11 12 12 11 12 13 16 18 19 19 19 19 19 19 19 20 20 20 21 21 21 21 21 23 24 23 23 23 23 24 24 24 23 23 23 24 24 24 24 24 24 24 24 24 24 24 25 24 24 25 24 23 24 23 24 24 24 24 24 23 23 23 23 23 23 23 23 23 22 19 16 17 16 16 16 16 16 15 15 13 12 12
9 9 9 9 9 10 11 11 11 10 10 12 14 17 19 19 19 19 19 19 19 19 20 20 21 21 21 20 21 24 23 22 23 23 23 23 23 23 23 23 23 23 23 24 24 24 23 23 23 23 24 24 24 24 24 24 24 23 23 23 24 24 24 23 24 24 23 23 23 23 23 23 22 22 22 18 16 17 16 17 17 16 16 15 15 13 12 12
9 9 9 8 10 11 10 10 10 10 10 12 14 17 18 19 19 19 19 19 19 20 20 20 20 21 20 19 22 24 22 22 23 22 23 23 23 23 23 23 23 23 23 23 23 23 23 23 22 23 24 24 24 23 23 23 23 23 23 23 24 24 23 23 24 24 23 23 23 23 23 22 21 22 22 18 16 16 16 17 16 16 16 15 15 13 12 11
9 9 8 9 9 10 10 10 10 10 10 12 14 16 17 18 19 19 19 19 19 20 20 20 20 20 20 19 21 23 22 22 22 22 22 22 22 22 22 22 23 23 23 23 22 23 24 23 23 24 24 23 23 23 23 23 23 23 23 23 23 23 23 23 23 23 23 23 22 23 22 22 22 22 20 17 16 16 16 17 16 16 15 15 14 13 12 11
9 9 9 9 9 9 9 10 10 10 10 12 14 15 15 17 19 19 19 19 19 19 20 20 19 19 20 21 21 21 21 21 21 21 21 21 22 22 22 22 22 23 23 23 22 23 23 23 23 23 23 23 23 22 22 23 23 23 22 22 23 22 23 24 23 23 23 23 23 23 22 22 23 21 18 16 16 17 16 16 16 15 15 14 14 13 12 10
9 9 9 9 9 9 9 10 10 10 10 12 13 14 15 17 18 19 18 19 19 19 19 19 19 19 20 21 21 20 21 21 21 21 21 21 21 21 21 21 22 22 23 23 23 23 23 23 23 23 23 23 23 22 22 23 22 23 22 22 22 21 23 24 22 22 23 22 22 23 21 22 24 19 16 17 17 17 17 16 16 15 15 14 13 13 12 11
9 9 9 9 9 9 9 10 10 10 10 11 12 14 15 17 18 18 18 18 18 18 19 19 19 19 19 21 20 20 20 20 20 20 21 21 21 21 21 21 22 22 22 22 23 23 23 23 23 23 22 22 22 22 22 22 22 22 22 21 21 21 22 24 22 22 23 21 22 23 21 22 23 19 17 17 17 17 17 16 16 15 15 14 13 13 12 10
9 9 9 9 9 9 9 9 10 10 10 11 12 13 15 16 17 18 18 18 18 18 18 18 18 19 20 20 20 19 19 19 20 20 20 21 21 21 21 21 21 21 22 22 22 22 23 23 22 22 22 22 22 22 22 21 21 22 21 21 21 21 21 23 22 22 23 22 21 22 22 22 23 20 17 17 17 17 17 16 16 15 15 14 13 12 11 10
9 9 9 9 9 9 9 9 9 9 10 11 12 13 14 15 16 17 17 17 17 18 17 18 18 18 20 20 19 20 19 19 20 20 20 20 21 21 21 21 21 21 21 21 22 22 22 22 21 21 22 22 22 22 21 20 20 21 21 21 21 21 21 21 22 22 22 22 21 21 21 22 23 20 17 18 17 17 17 17 16 15 15 14 13 12 11 11
10 9 9 9 9 9 9 9 9 10 11 11 12 13 14 15 16 16 16 17 17 17 18 17 17 19 20 19 20 20 19 19 19 20 20 20 21 21 21 21 20 20 21 21 21 21 21 21 21 21 21 21 21 21 20 20 21 21 21 21 21 21 21 21 22 22 22 22 22 21 20 21 22 20 18 17 17 17 18 17 16 15 15 14 13 12 11 10
10 9 9 9 9 9 9 9 9 10 11 11 12 12 14 14 15 15 16 16 17 19 20 19 18 20 21 20 19 19 19 19 19 19 20 20 21 21 21 21 20 20 21 21 20 21 21 20 20 20 20 20 21 21 21 22 22 22 21 21 21 21 22 22 23 22 22 22 21 21 21 21 21 21 19 17 17 17 17 17 16 15 15 14 13 12 11 10
10 10 9 9 9 9 9 9 10 11 11 11 11 12 15 16 16 17 15 14 16 19 20 19 19 21 21 19 18 18 18 19 19 19 19 20 21 21 21 21 20 20 20 20 20 20 20 20 19 20 21 21 20 21 21 22 22 22 22 21 21 21 21 23 23 22 22 22 21 21 21 21 21 21 20 18 17 17 17 18 17 15 15 14 13 13 11 9
10 10 9 9 9 9 9 9 10 11 11 11 11 12 15 17 18 18 16 15 16 16 17 18 19 20 20 19 17 18 19 19 18 18 19 20 20 21 20 20 20 20 20 20 20 20 20 19 19 20 21 21 21 21 21 21 21 22 22 21 21 21 21 22 23 22 21 21 21 21 20 20 21 21 20 18 17 17 17 18 17 15 15 14 13 12 10 9
10 10 9 9 9 9 9 9 10 11 11 11 10 11 13 14 16 16 16 18 17 16 16 17 17 19 19 19 18 19 20 19 18 18 19 20 20 20 20 19 19 20 20 19 19 20 19 18 19 20 20 20 21 22 21 21 21 21 21 21 20 21 21 22 22 21 21 21 21 22 21 20 21 21 20 19 18 18 17 18 17 16 14 13 13 12 9 8
10 10 9 9 9 9 9 10 10 11 10 10 10 11 13 13 14 14 15 17 18 17 17 17 17 18 18 19 19 19 20 20 20 18 18 19 19 20 20 19 19 19 19 19 19 19 19 19 19 19 20 20 21 21 21 21 21 21 21 20 20 21 21 21 21 20 21 21 20 21 20 19 20 20 21 20 18 18 17 17 17 16 14 14 13 11 9 8
11 10 9 9 9 9 10 10 10 10 11 11 11 12 13 13 14 14 15 18 18 18 18 18 18 18 19 20 19 20 20 21 21 19 18 19 19 19 20 19 19 19 19 19 19 19 19 21 21 20 20 20 21 21 21 21 21 21 21 20 20 21 21 21 21 20 20 20 20 20 19 19 19 20 20 19 16 17 17 17 17 15 14 13 12 11 9 9
11 10 10 9 9 10 10 10 10 10 11 11 11 13 14 13 14 14 16 18 18 18 18 18 19 19 20 20 20 20 20 21 21 19 18 19 20 20 20 20 19 19 19 19 19 18 19 21 21 21 20 20 20 20 21 21 21 20 21 21 21 21 21 21 20 20 19 19 19 19 19 19 20 20 20 18 17 17 16 15 16 14 13 13 12 10 9 9
11 11 10 9 10 10 10 10 11 11 11 10 12 14 14 14 14 13 16 18 17 18 19 19 19 20 21 19 19 20 20 20 20 19 18 19 21 21 20 20 20 20 19 20 19 19 20 21 21 21 20 20 20 20 20 21 20 20 20 20 21 21 21 21 20 20 20 19 19 19 19 19 19 20 21 19 18 17 15 14 14 13 12 12 11 10 9 9
11 11 10 10 10 10 10 11 11 11 11 11 13 14 14 14 13 13 16 17 17 19 19 18 19 20 20 19 19 20 20 19 19 18 18 19 20 21 20 20 20 20 20 21 20 20 20 21 21 21 21 20 19 20 20 20 20 20 19 20 21 21 20 20 20 19 19 19 18 18 19 18 17 19 21 20 19 18 16 14 13 12 12 11 11 10 10 9
12 11 11 10 10 10 11 12 11 11 11 12 13 13 14 14 13 14 17 17 18 20 19 17 18 19 19 18 19 20 19 19 19 18 17 18 19 20 20 20 20 20 21 21 20 19 20 21 21 20 20 20 19 20 20 20 21 19 18 19 20 20 19 20 20 19 18 18 17 17 18 18 17 18 19 19 19 19 18 15 13 12 11 11 10 10 9 9
12 12 11 10 10 10 11 11 11 11 12 13 13 13 13 13 14 16 17 17 20 20 18 18 18 18 18 18 19 20 18 18 19 17 17 18 18 19 19 19 20 20 21 21 20 20 20 19 19 20 20 20 19 19 18 20 21 18 17 19 19 19 19 19 19 18 18 17 16 17 18 18 18 19 19 18 18 19 19 17 14 13 11 10 10 10 9 9
12 12 11 10 10 10 10 11 11 12 12 13 13 12 13 13 15 16 15 17 20 19 17 17 17 17 17 17 18 19 18 17 16 16 17 18 18 18 19 19 20 20 19 20 19 18 18 16 17 19 19 18 18 16 16 18 19 18 18 19 19 18 18 18 17 18 17 16 17 17 18 18 18 19 19 18 19 19 20 19 15 12 12 11 10 9 9 8
12 12 11 11 10 10 10 10 11 12 12 12 12 12 13 14 15 16 16 17 20 18 16 16 17 17 17 17 17 18 18 16 16 17 17 17 17 18 18 18 19 19 18 19 18 17 17 17 17 18 17 17 18 17 16 16 17 18 19 19 18 18 17 17 16 16 16 16 17 17 17 17 17 18 19 19 19 19 20 20 17 13 11 11 10 9 9 8
12 12 11 11 10 10 10 11 12 12 12 12 12 12 14 14 14 16 17 18 19 18 17 17 16 17 17 18 18 18 17 16 16 17 17 16 17 17 18 18 18 18 18 18 17 17 17 17 17 17 16 17 19 18 17 16 16 18 18 18 18 17 16 16 16 15 15 16 17 17 16 16 17 19 20 19 20 20 19 19 18 14 12 11 10 9 8 8
12 12 12 11 11 10 11 12 12 12 12 12 12 12 13 14 14 16 17 19 19 18 17 17 16 17 17 17 17 17 17 17 16 16 17 16 16 16 17 17 18 18 18 17 16 17 17 16 16 17 17 17 19 19 17 17 17 17 18 18 18 17 16 16 15 15 15 16 16 16 16 16 16 19 20 19 19 18 16 16 16 14 12 11 9 8 8 8
12 12 11 11 11 11 11 11 12 12 12 12 12 12 12 13 15 16 16 18 18 17 17 17 16 16 16 17 17 17 17 16 15 16 16 16 15 15 16 16 17 18 18 17 16 16 17 17 17 17 18 17 18 19 18 17 16 16 17 18 17 17 17 17 17 16 17 16 15 15 16 17 18 18 17 15 15 14 14 14 14 12 11 10 9 8 8 7
12 12 12 11 11 11 11 11 12 12 11 11 12 12 12 14 15 16 16 17 18 17 17 17 16 16 16 16 17 17 17 16 15 16 16 15 15 15 16 16 16 17 18 18 17 16 17 18 17 17 17 17 18 18 18 18 16 15 17 17 17 18 19 18 17 16 16 16 15 15 16 17 18 17 14 13 13 13 13 13 12 11 10 9 8 8 8 7
12 12 11 11 11 11 11 11 12 12 11 11 11 11 13 14 15 16 16 17 18 17 16 16 16 15 15 16 16 17 17 17 15 16 15 15 16 16 16 16 16 17 18 18 17 16 17 17 16 15 16 16 17 18 18 18 18 16 16 17 17 17 19 19 16 15 15 16 16 16 16 17 18 18 15 13 14 14 12 12 11 10 9 9 8 8 7 7
11 11 11 11 11 11 11 11 11 11 11 11 11 12 13 14 16 16 16 17 18 17 17 16 16 16 15 15 16 16 17 17 16 16 15 15 16 16 16 17 17 17 18 19 19 18 18 17 15 14 16 15 14 16 17 17 17 16 16 16 17 17 18 18 17 15 15 16 16 16 16 17 18 18 15 13 14 14 12 12 11 9 9 9 8 8 8 8
11 11 11 11 11 11 11 11 11 11 11 11 11 12 13 14 15 16 17 18 17 17 17 17 17 16 16 15 16 16 16 17 15 15 16 15 16 17 17 17 17 17 18 19 19 19 19 19 15 13 15 14 14 16 16 15 16 16 16 17 17 17 17 17 16 16 15 15 16 16 16 16 17 18 17 15 16 15 13 11 10 10 9 9 9 8 8 8
11 11 12 12 12 11 11 11 10 11 11 11 10 11 13 13 15 16 17 18 18 17 17 17 17 17 17 16 16 16 16 16 15 15 16 16 16 17 17 18 17 17 18 18 19 19 19 19 17 12 13 14 14 15 15 15 15 15 15 16 16 17 16 16 16 17 16 16 16 16 16 16 17 18 19 19 17 16 13 11 11 10 9 9 9 8 8 8
11 12 12 13 12 12 11 10 10 11 11 11 11 11 12 13 14 15 16 17 17 17 17 18 17 17 17 17 16 16 16 16 15 15 16 16 17 17 17 18 18 17 18 18 19 19 18 18 17 13 12 13 14 15 15 15 15 15 15 16 16 16 16 16 16 17 17 17 17 16 17 18 17 17 19 20 18 16 14 13 12 10 10 9 9 9 8 8
11 12 13 12 12 11 10 10 11 12 11 11 11 11 12 13 13 14 15 15 16 16 16 17 17 17 18 17 17 17 16 16 15 15 16 16 17 18 18 18 18 17 17 17 18 18 18 18 17 14 12 13 14 14 15 15 16 15 15 16 16 16 16 16 16 16 17 17 17 16 17 19 17 15 16 18 18 16 14 14 13 11 10 10 9 9 8 8
11 12 12 12 12 11 10 11 12 12 11 10 10 11 12 13 13 13 14 15 15 15 15 16 16 17 17 17 17 17 17 16 15 16 16 16 17 18 17 17 18 18 17 17 17 18 18 17 17 15 13 13 14 14 13 14 15 15 15 16 16 16 16 16 16 16 16 17 17 16 16 17 15 12 13 15 15 15 14 13 13 12 11 10 10 9 9 8
11 12 11 11 11 11 11 12 12 12 11 10 11 12 12 12 13 13 14 14 14 15 15 15 16 16 17 17 17 17 17 17 16 16 16 17 17 16 15 15 17 18 18 17 17 18 18 17 17 15 14 13 14 13 13 14 15 15 15 15 16 16 16 17 17 16 16 16 16 15 16 17 15 12 12 13 13 14 14 13 13 12 11 10 10 9 9 8
11 11 11 11 11 11 11 12 12 11 11 10 11 11 12 12 12 13 13 14 14 15 15 14 15 16 16 16 16 17 17 17 17 16 16 17 16 13 12 14 15 17 18 17 17 18 17 16 16 15 14 14 13 13 13 13 14 14 15 15 15 16 16 16 15 16 16 16 17 16 16 18 16 12 13 13 13 14 14 13 13 12 11 10 10 9 9 8
11 11 11 11 11 11 12 13 13 11 10 9 10 11 11 12 12 13 13 14 14 15 15 15 15 15 15 15 15 16 16 16 16 15 15 16 15 13 12 12 14 16 15 14 16 18 17 16 16 15 15 15 15 14 14 13 13 13 14 14 15 15 16 16 16 15 15 16 17 16 17 18 16 14 14 14 13 13 13 12 12 12 11 10 10 9 9 8
11 11 11 11 11 11 12 13 13 12 10 9 9 10 10 11 12 13 13 13 14 14 15 14 14 15 14 14 15 15 15 15 15 15 15 15 15 13 11 11 13 14 13 13 15 17 16 15 16 16 16 16 17 16 15 14 14 14 14 14 14 15 15 15 15 15 15 15 16 17 17 18 17 17 16 15 13 13 13 12 12 12 11 10 10 9 9 8
11 11 11 11 11 10 11 11 12 12 11 10 10 10 10 11 12 12 12 13 14 14 14 14 14 14 14 14 14 14 14 14 14 14 14 15 14 12 10 11 11 12 13 13 14 15 15 15 15 15 16 16 16 16 15 15 14 14 14 14 14 14 15 15 15 15 16 15 15 17 17 17 17 18 17 15 14 13 13 12 12 11 11 10 10 9 9 9
10 11 12 11 11 11 10 10 11 11 11 11 11 11 11 11 11 11 11 12 13 13 13 13 13 14 14 14 14 14 14 14 14 14 14 14 14 12 12 12 10 10 12 13 12 14 15 15 14 15 15 15 15 14 14 15 14 14 14 14 14 14 14 14 15 16 16 16 16 17 17 17 17 18 17 15 14 14 14 12 12 11 10 10 10 9 9 8
9 9 10 10 11 11 11 11 11 11 11 11 11 11 11 11 11 11 12 12 12 12 13 13 13 13 14 14 14 13 14 14 14 14 14 14 13 13 13 13 11 9 11 12 12 13 14 14 14 14 14 14 14 14 14 14 14 14 14 14 14 14 14 14 15 15 16 16 17 16 16 16 17 18 18 15 13 13 13 12 11 11 10 10 9 9 9 8
8 8 9 9 10 11 11 11 11 11 11 11 10 11 11 11 11 11 12 12 11 12 12 12 13 13 13 14 13 13 14 14 14 14 14 14 13 12 13 14 12 9 10 12 12 12 13 13 13 13 13 13 14 13 13 13 13 14 14 14 13 13 13 14 14 15 15 15 16 16 15 16 16 17 16 14 13 13 12 12 11 11 10 9 9 9 9 8
6 6 7 9 9 10 10 11 11 11 11 10 10 11 11 12 12 12 12 12 12 12 12 12 13 13 13 13 13 13 14 14 14 15 14 14 14 13 13 14 13 11 10 11 11 12 12 12 12 12 12 12 13 13 12 12 12 12 13 13 13 12 13 13 14 14 15 15 15 15 15 16 17 16 15 13 13 13 13 12 11 10 9 9 9 9 9 8
5 5 6 8 9 10 10 10 10 11 11 10 10 10 11 11 12 12 12 12 13 13 13 13 13 13 12 12 13 14 15 14 14 14 14 14 14 14 14 13 13 13 11 10 11 11 11 11 11 11 12 13 13 13 12 11 11 12 13 13 13 12 12 14 14 14 15 15 15 15 15 16 16 15 15 14 13 13 13 12 11 10 9 9 9 9 9 9
Height
812 812 813 813 813 814 814 814 814 814 814 815 815 815 815 815 815 815 815 815 816 815 816 816 815 815 815 814 814 813 813 812 812 812 812 812 812 813 813 813 813 813 813 812 812 811 810 810 810 810 810 811 812 813 812 812 812 817 825 832 837 840 837 831 831 830 830 833 833 831 830 832 835 832 829 828 832 838 840 842 843 843 843 844 845 846 846 846
812 812 812 813 813 813 813 813 814 814 814 814 814 815 815 815 815 815 815 815 815 815 815 815 815 815 814 814 814 813 813 812 812 812 812 812 812 813 813 813 814 814 813 812 812 811 812 812 811 810 812 814 815 814 815 814 815 821 829 834 838 837 833 828 828 828 828 831 831 830 830 831 833 832 829 832 837 839 841 846 847 846 846 846 846 846 846 845
811 812 812 812 812 812 813 813 813 813 814 814 814 814 814 814 815 815 815 815 815 815 815 815 815 814 814 814 813 813 813 812 813 813 812 812 813 813 814 814 814 814 813 813 812 812 812 812 811 812 814 817 816 816 818 817 818 823 828 835 837 831 830 828 827 828 828 828 830 831 830 831 832 830 830 834 838 839 841 846 847 847 848 847 846 846 846 846
811 811 812 812 812 812 812 813 813 813 813 813 814 814 814 814 814 814 814 815 815 815 815 814 814 814 814 813 813 813 811 814 815 812 812 812 813 813 814 814 814 814 813 813 812 812 812 811 811 812 816 819 818 817 820 820 821 823 827 833 832 827 830 830 827 827 827 827 830 831 831 832 831 829 831 833 838 842 843 843 842 844 846 846 846 846 846 846
811 811 812 812 812 812 812 813 813 813 813 813 813 813 814 814 814 814 814 814 814 814 814 814 814 814 814 812 813 812 813 820 817 810 812 812 812 813 814 814 814 814 814 813 813 812 812 811 811 814 817 821 820 821 823 820 820 825 827 828 827 826 831 831 827 827 826 827 829 831 832 832 831 830 831 833 836 840 841 841 841 842 844 845 845 846 846 846
811 811 812 812 812 812 812 812 813 813 813 813 813 813 814 814 814 814 814 814 814 814 814 814 814 813 813 812 813 811 815 822 814 809 812 812 813 814 813 814 814 814 814 813 812 812 813 812 814 818 820 822 823 824 824 821 820 827 829 827 826 826 829 829 827 827 827 828 830 831 831 831 832 833 831 832 835 837 839 840 841 842 843 844 844 845 846 846
811 811 812 812 812 812 812 812 812 813 813 813 813 813 814 813 814 814 814 814 814 814 814 814 813 813 813 812 812 812 815 815 809 810 812 811 813 813 814 814 814 814 813 813 813 813 814 815 817 819 821 824 825 825 824 822 821 827 831 828 827 827 827 827 827 827 827 828 830 829 830 831 833 834 831 834 839 839 839 840 841 842 843 843 845 846 847 847
811 811 811 811 812 812 812 812 812 813 813 813 813 813 814 814 814 814 814 814 814 814 814 813 813 812 812 812 812 814 815 811 808 810 811 811 813 813 814 814 814 814 813 814 813 814 815 818 819 819 823 826 824 825 824 824 826 829 831 829 827 827 826 826 826 827 827 827 829 829 831 831 832 832 831 836 841 840 840 840 841 842 843 844 845 846 847 847
811 811 811 811 812 812 812 812 812 813 813 813 813 813 813 814 814 814 814 814 814 814 813 813 813 812 812 811 813 816 813 808 808 810 811 812 813 813 814 814 814 814 813 814 813 814 816 819 820 818 823 825 823 825 824 827 832 830 829 829 828 827 826 826 826 827 827 827 828 830 832 831 830 831 833 837 840 840 840 841 841 843 844 845 846 847 847 847
810 810 810 810 811 812 812 812 812 812 812 812 812 812 812 813 813 814 814 814 814 814 813 813 812 812 812 811 814 817 811 807 809 810 811 812 812 813 813 813 814 813 813 814 813 814 815 818 818 816 820 823 823 826 826 828 830 828 828 828 827 827 826 826 826 825 827 827 827 830 833 830 830 832 834 838 839 839 840 841 842 842 844 845 846 847 847 847
809 809 810 810 810 811 811 812 812 812 812 811 811 811 811 812 812 813 813 813 813 813 813 813 812 812 812 812 816 815 809 808 809 809 811 812 812 813 813 813 813 813 813 813 814 814 815 816 815 816 820 823 824 827 827 826 827 826 827 828 827 826 826 825 825 825 827 828 827 829 831 831 832 832 830 834 838 838 839 840 841 842 843 845 845 847 847 848
808 808 809 809 810 810 811 811 812 812 812 811 811 810 811 811 811 812 812 812 813 813 813 813 813 812 812 814 815 811 808 809 809 810 811 811 812 813 813 813 813 813 813 813 814 814 815 815 814 818 822 823 826 830 828 825 826 827 828 831 830 827 827 824 823 824 825 828 826 828 835 834 832 831 829 833 837 838 839 839 841 842 843 844 845 846 847 848
807 807 808 808 809 810 810 811 811 812 811 811 810 810 810 810 810 811 811 812 812 812 813 813 813 812 813 814 811 808 808 809 809 809 811 811 812 812 813 813 813 814 813 813 814 814 815 815 815 819 820 822 827 829 827 825 826 828 830 833 833 834 829 821 821 823 824 828 824 829 842 835 826 829 832 834 835 837 839 839 840 841 842 844 845 846 847 848
806 806 807 807 808 809 809 810 811 811 810 810 810 810 809 809 810 810 810 811 811 812 812 812 813 813 814 813 808 808 808 808 809 809 810 811 811 812 813 813 813 814 814 814 814 814 815 815 816 818 819 822 825 825 827 828 829 830 833 835 838 842 834 821 822 824 826 830 824 829 845 835 823 831 835 834 835 836 838 839 839 841 841 843 844 846 847 847
805 805 806 806 807 808 808 809 810 810 810 810 809 809 809 809 809 809 810 810 810 812 811 812 813 813 815 812 807 808 808 808 809 809 810 811 811 812 812 813 813 814 814 815 815 815 816 816 817 821 823 822 823 828 832 833 832 833 838 841 842 844 836 824 823 824 825 830 826 831 844 835 824 830 834 833 834 834 836 838 838 840 841 842 844 845 846 847
804 804 805 805 806 807 807 808 809 809 809 809 809 809 808 808 808 809 809 810 810 811 811 813 812 814 817 813 807 808 808 808 808 808 810 810 810 811 812 813 813 814 815 815 815 816 816 817 820 823 824 825 828 833 838 841 839 837 841 844 841 842 840 831 825 823 823 828 830 831 837 833 824 828 832 833 833 833 835 837 837 838 839 840 842 844 846 847
802 803 804 804 805 806 807 807 808 808 808 808 808 808 808 808 808 809 809 810 811 811 811 813 812 814 814 810 808 808 805 805 806 808 809 810 810 811 811 813 814 814 814 815 816 816 817 819 823 825 826 828 830 834 844 852 847 841 842 843 841 840 841 837 829 825 824 827 831 832 834 830 823 827 831 830 831 832 833 834 834 836 837 838 840 843 844 846
801 802 802 803 804 805 806 807 807 807 808 808 808 808 808 808 808 809 809 810 810 812 813 813 814 817 814 807 806 804 802 804 805 807 808 809 810 811 811 812 813 815 816 817 818 819 821 823 826 829 832 832 832 837 847 848 842 839 841 842 841 837 837 837 831 825 825 828 831 834 836 831 825 827 830 829 830 831 830 830 832 833 835 837 839 841 843 844
799 800 801 802 803 804 805 806 807 807 807 808 808 808 808 808 809 809 809 810 810 811 811 809 809 812 808 801 801 801 801 803 805 807 808 808 810 810 811 812 813 816 819 823 823 822 823 827 832 835 837 835 833 836 838 835 831 833 835 837 838 837 834 831 827 823 824 830 832 832 833 829 825 825 827 828 828 829 829 828 831 833 834 836 837 839 842 844
797 799 800 800 802 803 804 805 806 807 807 807 807 808 808 809 810 810 810 809 806 802 801 801 801 802 801 799 800 802 802 804 805 806 807 808 809 810 812 813 815 819 821 824 825 823 824 832 837 835 832 830 830 830 828 828 828 829 832 835 835 837 835 827 824 822 822 828 830 828 829 827 823 821 821 825 827 828 828 827 829 831 832 834 835 838 841 844
796 797 798 799 801 802 803 804 806 807 807 807 807 807 807 806 807 808 808 806 801 797 798 798 798 798 798 798 799 799 801 805 806 806 807 807 808 812 814 815 820 824 823 823 825 824 826 835 836 828 824 825 825 826 826 828 830 830 832 834 836 837 834 826 824 823 823 828 828 825 828 827 821 819 819 823 827 825 823 823 825 827 829 832 833 837 841 843
794 795 797 799 799 801 802 804 805 806 807 807 807 807 806 804 804 804 804 804 799 796 796 797 798 799 797 797 797 797 800 805 808 806 806 807 809 812 814 817 823 824 822 824 828 830 833 836 830 824 822 824 823 822 825 828 829 831 833 836 838 836 832 828 826 825 824 828 828 825 827 825 819 817 817 819 820 817 816 816 817 821 826 829 831 835 840 843
793 793 796 797 798 800 801 803 805 806 807 806 806 806 805 804 804 803 804 805 800 793 793 795 796 797 797 797 796 796 798 801 805 806 804 806 809 810 813 818 822 822 823 826 829 834 836 829 821 820 822 823 824 823 824 827 827 829 832 836 838 834 834 834 830 828 826 828 829 828 829 827 821 817 813 812 814 813 814 815 816 819 822 825 828 832 836 839
790 792 794 795 797 799 800 803 804 805 806 806 806 805 804 804 804 804 804 804 801 792 788 789 789 790 791 792 792 794 797 796 797 801 802 803 807 809 811 814 819 824 824 823 825 828 826 816 811 816 820 822 825 825 824 827 829 829 829 832 834 832 832 832 831 831 831 830 829 831 835 827 820 818 811 810 816 815 815 816 816 819 821 823 827 830 834 835
788 791 792 793 796 797 800 803 802 804 805 805 804 803 805 805 804 806 805 806 804 793 785 785 785 784 783 787 790 791 794 793 791 794 796 798 801 806 809 809 814 823 822 820 824 826 819 811 809 815 820 821 824 826 823 825 830 830 826 825 827 827 828 829 832 834 838 838 831 833 841 828 815 815 811 812 817 815 817 817 815 819 821 822 826 829 833 834
786 789 790 792 794 796 801 801 799 802 803 803 802 801 805 804 805 807 804 812 809 792 786 785 782 779 777 784 788 790 798 795 786 788 791 794 794 797 807 808 808 815 816 816 820 818 812 808 808 812 818 821 825 826 822 821 830 834 827 821 822 824 827 829 832 836 840 841 833 833 842 835 818 811 807 809 813 813 816 817 816 820 820 820 824 827 830 833
784 786 788 791 792 794 798 796 797 800 801 801 798 801 805 803 807 806 807 824 811 781 781 784 779 775 774 779 782 789 801 793 786 791 790 793 794 792 803 808 806 809 807 811 820 813 805 806 809 812 815 820 825 825 820 819 828 831 825 821 821 824 829 829 831 836 838 839 838 834 839 842 828 811 803 803 809 812 813 815 816 819 820 820 823 825 827 830
781 784 786 788 790 791 793 794 796 796 797 798 796 801 803 803 808 804 812 829 801 768 774 780 776 773 773 778 778 784 791 785 788 796 790 792 795 793 800 803 804 805 800 807 819 811 802 806 808 810 815 820 821 818 815 817 823 827 824 822 822 824 828 829 831 838 840 843 846 840 839 846 830 808 804 805 808 809 804 806 811 814 818 820 822 824 826 828
779 782 784 786 789 790 792 793 794 794 795 796 798 801 801 805 807 805 820 821 782 762 773 774 775 776 776 781 781 781 785 786 790 794 791 793 794 794 800 800 800 804 800 801 809 807 804 807 806 806 811 815 816 817 816 815 818 824 825 822 824 828 829 833 835 839 845 848 848 842 841 846 826 801 805 812 810 803 792 794 805 810 816 818 820 823 825 827
775 778 781 785 787 789 791 791 792 793 795 796 798 799 802 806 806 814 830 810 771 768 777 774 776 778 778 784 787 784 786 791 792 792 794 795 795 796 797 798 799 804 805 803 805 808 807 809 808 806 808 811 815 820 821 818 816 820 824 824 829 834 834 838 840 841 850 849 841 836 835 841 832 805 801 805 799 793 787 790 801 808 812 815 818 821 822 825
771 774 778 781 782 784 786 788 789 792 794 795 797 800 803 807 808 816 817 788 768 774 778 777 778 777 778 783 787 787 788 794 794 793 797 798 799 800 800 802 804 809 813 810 810 812 810 809 809 808 810 811 813 818 821 822 820 819 823 828 835 841 842 846 847 850 857 846 832 830 830 837 834 808 795 794 787 786 786 785 793 802 808 811 815 818 821 824
769 771 774 776 778 780 780 781 785 790 793 794 797 799 802 810 812 806 793 776 772 773 770 775 778 776 780 780 781 784 787 793 794 792 796 799 801 800 799 800 803 812 818 815 815 816 812 811 810 809 811 809 809 817 825 826 824 823 826 833 841 850 853 855 857 859 857 844 831 831 833 834 823 798 790 789 782 783 784 782 786 796 803 808 812 816 819 823
765 768 771 773 774 776 776 779 784 788 791 793 796 798 802 808 802 789 780 773 770 767 764 770 773 775 780 781 782 783 785 790 793 793 793 797 802 800 797 797 796 802 807 812 818 819 817 815 812 812 811 805 804 814 824 825 825 826 826 831 841 852 859 859 859 858 850 838 832 833 835 831 815 795 787 785 781 785 787 786 787 791 798 804 809 815 818 821
762 765 767 768 771 773 774 778 781 784 788 791 795 799 803 801 787 777 776 769 763 764 765 768 773 778 779 779 780 779 784 791 792 792 795 798 804 803 800 798 796 796 800 810 817 818 819 814 807 806 804 801 800 802 808 814 823 825 820 822 830 838 845 846 846 844 838 834 836 838 833 820 806 794 789 791 791 792 791 789 790 794 799 804 810 815 817 820
758 761 763 765 768 769 771 775 777 781 785 787 793 798 796 788 777 772 770 765 763 765 766 768 774 782 783 780 778 774 778 788 792 793 795 796 798 798 795 793 795 795 797 805 811 813 816 806 796 797 796 796 798 797 800 809 822 825 819 822 826 824 824 828 834 835 835 837 837 835 824 807 796 790 793 798 795 793 794 793 794 798 803 807 811 814 816 818
754 756 759 760 760 762 766 770 773 777 779 782 790 792 781 770 764 763 760 757 760 764 769 774 776 782 786 783 781 777 774 781 790 793 794 795 792 790 789 786 788 790 787 793 801 806 812 806 798 800 799 797 798 797 799 803 813 822 824 822 820 816 814 822 835 838 838 838 829 821 814 803 795 788 789 797 794 793 798 796 798 802 805 807 809 811 814 816
749 750 752 751 750 754 760 764 768 773 775 778 782 777 767 760 754 754 754 751 754 758 764 772 774 776 782 782 781 779 776 779 788 791 792 795 788 781 784 782 781 784 779 782 788 789 795 801 803 803 801 802 803 801 801 802 806 817 823 817 814 819 819 823 835 839 841 840 824 813 810 804 799 791 789 797 794 791 796 798 801 805 806 806 807 809 812 814
742 744 744 741 743 748 754 759 763 767 771 776 777 768 760 757 751 748 749 748 751 756 759 763 765 766 772 777 777 777 775 778 787 789 789 792 781 769 774 778 776 777 774 778 784 782 784 794 804 808 805 805 804 803 807 808 806 809 812 809 812 823 826 827 834 835 838 839 822 812 810 801 792 784 782 789 787 785 793 799 801 802 803 803 804 807 810 812
740 742 738 734 739 744 749 756 759 762 765 770 774 767 756 754 750 746 746 745 747 753 756 755 757 760 763 767 770 773 772 773 782 786 782 784 777 764 765 769 771 773 772 776 781 779 781 788 800 810 809 806 805 806 810 812 810 810 811 810 811 817 820 822 825 823 826 831 821 814 808 791 778 772 768 773 776 778 788 794 795 795 797 799 801 804 807 808
738 739 732 728 734 741 746 752 756 757 758 760 763 760 752 751 752 748 745 745 746 749 751 750 752 757 758 760 763 766 768 770 776 779 774 774 772 765 762 761 766 770 770 773 775 775 782 786 795 810 814 809 806 804 802 802 805 809 812 814 814 816 819 820 817 812 816 822 819 816 803 776 767 769 761 760 765 771 779 782 785 789 793 796 798 800 803 805
733 733 727 725 730 737 744 750 751 751 755 758 757 754 751 749 750 750 747 747 749 748 748 747 749 751 752 756 758 759 763 767 771 773 770 768 766 762 759 756 759 765 771 778 777 775 782 786 792 807 814 808 801 798 795 794 795 799 802 804 805 809 814 820 819 810 810 812 810 813 800 767 762 772 765 760 762 766 771 773 776 784 789 791 794 796 799 802
731 729 724 723 726 732 741 744 742 743 750 755 751 749 750 747 747 750 748 747 751 750 749 749 748 748 748 750 751 753 758 763 767 767 765 762 759 756 757 757 756 759 766 775 774 769 774 781 789 800 806 803 799 798 799 797 794 797 800 798 799 801 802 809 812 807 808 806 802 811 803 770 766 777 772 768 767 765 769 771 773 781 785 788 792 795 799 801
730 727 725 724 723 727 735 738 737 739 743 746 744 743 746 745 746 748 747 747 750 750 751 751 748 747 747 746 748 749 752 756 759 758 758 757 756 756 760 760 758 758 761 768 769 767 773 781 787 795 800 801 799 798 799 798 797 800 799 796 797 797 794 797 799 800 804 800 800 814 804 771 768 778 774 773 771 766 768 770 773 779 784 787 791 794 798 800
726 727 726 726 725 725 727 729 731 736 741 743 744 743 744 744 744 744 744 745 745 745 748 749 747 746 745 745 746 746 748 751 753 753 754 754 756 761 763 761 760 759 758 762 763 764 773 782 788 795 801 802 803 803 802 801 800 797 794 795 795 793 795 798 799 802 801 791 794 807 793 766 767 776 772 772 771 767 769 771 772 777 782 786 789 792 795 798
724 726 726 725 725 723 720 718 722 731 740 745 746 744 744 743 740 739 740 742 741 741 744 745 744 744 745 747 748 747 745 747 751 754 756 755 756 762 765 764 762 759 760 763 758 756 768 778 782 790 796 793 790 791 791 793 797 795 793 793 792 791 795 796 798 803 799 789 788 789 776 764 767 770 769 770 771 769 769 772 773 775 779 782 786 790 792 795
720 723 723 723 724 722 718 715 717 725 734 743 746 744 744 742 738 737 740 740 739 739 741 742 743 745 747 749 750 750 749 749 752 755 756 755 756 761 766 766 764 762 764 765 760 759 768 774 773 776 777 772 769 770 773 779 786 789 788 787 787 788 789 792 796 795 793 793 785 770 764 766 765 764 765 767 770 770 769 771 773 774 778 780 783 787 790 792
716 714 714 717 721 722 721 719 718 719 723 731 736 736 738 739 736 739 741 738 736 737 740 741 742 744 746 747 749 750 750 752 754 755 755 755 758 764 768 767 767 767 765 764 762 763 769 772 770 769 768 763 764 769 772 774 776 779 781 782 783 785 786 791 789 780 783 793 780 759 761 767 761 759 762 763 767 770 769 770 770 772 776 779 782 786 788 791
713 709 706 708 712 716 719 718 717 717 718 723 726 726 731 736 736 738 737 735 735 737 740 743 740 739 739 741 746 748 749 753 754 752 753 755 758 763 765 765 769 771 767 766 767 765 768 770 768 770 770 765 767 772 773 773 774 775 777 776 778 781 782 782 777 771 776 780 767 757 761 760 755 757 758 761 764 764 763 766 769 771 775 778 781 784 786 789
713 711 708 708 707 707 708 709 712 716 718 721 723 722 726 731 732 730 729 734 739 736 736 739 735 734 736 738 743 746 747 749 749 746 748 753 756 760 760 760 767 773 769 768 770 768 768 769 769 773 773 768 767 771 772 774 775 775 775 774 773 774 773 771 767 766 770 766 758 762 765 758 755 754 751 756 761 760 763 767 769 771 774 776 779 781 783 786
711 710 709 709 708 706 706 706 709 714 716 719 721 718 718 721 723 723 723 729 734 733 733 733 728 729 735 737 740 741 737 736 737 737 742 750 755 758 756 753 760 773 774 770 771 772 771 771 770 775 779 772 766 770 775 776 774 773 772 770 769 769 770 770 765 763 770 766 759 765 766 756 752 752 751 756 760 761 765 767 768 771 774 776 777 778 780 782
709 710 709 710 708 706 706 706 707 710 714 719 721 717 715 714 714 717 719 718 720 723 726 724 722 727 734 737 738 734 727 727 731 732 735 740 743 746 748 746 751 765 774 773 771 772 775 776 775 780 781 769 760 767 773 774 777 778 770 761 764 771 770 766 761 760 764 762 762 769 765 750 747 752 756 760 761 761 762 765 769 772 775 776 775 775 777 779
708 710 710 711 709 705 704 705 706 706 707 711 716 716 715 713 711 714 719 717 713 714 715 714 716 725 733 735 732 724 720 726 731 732 734 735 735 737 741 743 744 752 763 770 770 769 773 776 776 780 777 763 759 765 770 777 783 773 753 743 753 766 765 759 756 753 752 752 756 760 752 744 747 752 753 758 762 761 762 765 769 771 775 777 774 772 775 776
Wind_Speed
3 3 3 2 1 1 1 2 1 2 3 3 3 3 4 4 4 4 4 4 4 5 4 4 5 5 5 6 7 9 9 8 6 3 0 1 3 5 5 5 5 5 4 5 8 10 10 7 4 5 6 3 2 2 3 2 2 5 3 4 2 0 1 1 1 2 4 5 4 2 3 6 3 1 0 2 7 6 5 7 5 7 8 8 10 10 9 8
3 3 3 3 2 2 2 2 2 2 1 2 2 3 4 4 4 4 4 4 5 5 5 5 5 5 5 6 8 9 9 7 3 2 1 4 6 7 7 6 6 5 5 6 9 10 8 6 8 8 6 1 2 2 3 2 3 4 3 4 0 3 1 1 3 3 3 6 5 2 4 6 5 2 1 1 3 5 6 4 4 7 7 7 11 12 12 12
2 2 3 3 3 2 2 2 2 3 2 2 3 3 4 4 4 4 5 4 5 5 5 5 5 5 6 6 7 8 8 4 1 1 3 8 9 9 8 7 6 6 6 6 7 9 6 7 10 6 4 1 2 2 3 3 2 2 3 4 3 4 2 3 4 5 2 6 7 3 3 4 2 2 2 2 2 5 5 2 3 5 4 4 6 11 14 15
3 2 3 3 2 2 2 1 2 2 2 2 3 3 3 4 4 4 5 5 5 5 5 5 5 5 6 7 7 7 6 3 1 3 7 11 11 10 9 7 6 6 6 6 6 6 7 9 8 3 3 2 3 3 3 2 1 2 3 4 5 2 3 3 4 6 4 5 7 4 3 4 1 0 3 4 3 2 3 3 4 6 7 6 5 9 13 14
3 3 2 2 2 1 1 1 2 2 3 3 3 3 3 3 3 3 4 5 4 4 4 5 5 6 6 7 6 7 5 4 2 6 10 12 11 10 8 5 6 6 5 6 6 7 8 8 5 4 3 1 3 4 1 3 2 3 1 4 3 3 3 2 3 5 4 5 5 4 4 1 1 1 2 6 4 3 4 3 5 7 7 7 6 9 11 12
3 3 2 2 1 1 1 1 2 2 3 3 3 3 4 4 4 3 4 4 4 4 5 5 5 5 5 6 6 5 2 2 4 10 12 11 11 8 6 4 4 6 4 4 7 7 7 5 5 3 2 2 1 3 1 3 4 3 2 1 3 4 4 2 2 3 4 6 4 2 1 1 2 2 1 5 3 4 5 5 7 7 8 10 10 9 8 8
4 4 3 2 2 2 1 2 2 2 3 4 4 4 4 5 4 4 3 3 4 4 4 4 5 6 5 4 5 2 3 2 6 13 13 11 10 7 5 2 3 4 4 6 8 6 5 6 5 1 2 4 2 3 0 3 5 5 1 3 4 3 4 3 3 3 5 4 1 2 1 0 2 2 1 5 2 4 7 7 9 9 11 13 10 8 7 8
5 5 5 4 3 2 2 2 1 1 3 4 5 5 5 6 5 4 4 3 4 4 4 4 4 5 4 2 1 3 1 3 9 14 12 11 10 7 5 1 2 2 3 6 6 3 3 5 3 2 4 2 1 1 1 4 6 4 1 2 2 1 3 5 5 4 3 2 2 2 1 3 4 3 0 4 5 5 7 8 9 9 11 10 7 7 7 8
7 7 6 5 4 3 2 2 1 1 3 4 5 6 6 6 6 5 4 4 3 3 4 3 4 4 4 3 3 2 3 5 12 15 13 11 9 7 5 2 2 2 3 2 3 3 2 2 2 2 3 1 2 2 1 4 2 1 2 1 2 3 2 4 5 5 4 3 2 1 3 6 4 3 2 4 8 6 7 7 6 8 8 7 6 7 8 8
8 8 7 7 5 3 2 2 3 3 3 4 6 6 6 6 6 5 5 4 3 3 3 3 4 2 2 3 4 1 2 6 12 14 12 11 9 7 5 3 3 3 2 0 3 5 2 2 1 1 3 1 1 1 2 4 2 2 2 3 3 5 5 3 5 6 5 3 4 4 4 5 3 2 3 4 7 7 8 7 6 7 6 6 6 6 9 9
9 9 8 7 5 2 2 3 4 4 4 5 6 6 6 6 5 4 4 4 3 3 3 3 3 2 1 3 4 3 3 6 11 12 11 10 9 8 7 5 5 4 2 1 3 4 3 2 3 2 2 1 2 2 2 1 1 1 3 5 6 6 6 4 6 6 4 2 5 7 3 4 3 1 5 7 8 7 9 8 6 7 6 6 6 5 8 10
11 10 9 8 6 4 2 4 5 5 6 6 5 5 5 5 5 4 4 3 3 2 3 3 2 2 1 3 2 5 5 7 10 11 10 10 10 9 7 5 5 5 3 4 4 3 3 3 6 4 0 1 2 2 1 2 1 2 3 2 7 6 5 6 6 6 6 3 6 7 2 5 3 5 4 9 9 7 8 8 6 7 6 6 6 5 6 9
11 11 10 9 8 5 3 4 5 6 8 6 5 5 6 5 5 5 4 3 3 3 3 2 2 1 2 0 3 6 8 8 9 9 10 9 9 8 6 5 5 5 3 5 4 2 3 2 5 4 1 3 1 0 1 1 2 1 1 1 3 7 5 7 4 6 6 3 6 7 2 6 6 5 5 8 9 8 7 7 6 6 6 6 5 5 5 8
12 11 10 10 10 8 6 5 6 7 8 6 5 6 6 5 4 5 4 4 4 3 3 2 2 2 2 2 3 6 9 8 8 9 9 9 8 7 5 5 5 4 3 3 2 1 1 0 3 3 0 3 2 0 2 2 2 0 1 1 1 2 5 7 0 8 6 1 5 7 1 6 7 4 6 7 8 9 8 7 6 6 5 5 5 5 5 6
13 12 11 11 10 9 7 6 6 6 7 6 6 6 5 3 3 4 4 5 5 4 3 3 4 4 2 3 3 5 8 7 8 10 9 9 8 6 6 6 5 3 2 1 1 1 1 2 3 3 1 1 3 3 3 3 2 1 1 3 2 2 5 7 1 8 7 1 3 6 2 6 7 5 7 6 7 8 8 8 7 7 7 6 5 5 5 5
14 14 13 11 11 9 7 7 6 6 7 5 6 6 3 1 3 4 4 5 5 5 4 2 3 4 2 2 1 4 6 6 8 10 10 10 7 6 9 8 5 4 3 2 2 3 3 3 2 2 1 2 4 5 3 4 4 2 2 3 3 2 3 4 3 4 6 4 2 3 2 4 5 5 7 7 8 8 7 8 8 8 7 7 6 5 6 5
14 14 13 12 12 11 9 7 5 5 5 4 6 4 1 2 3 4 5 5 6 5 4 2 2 3 0 0 2 3 5 7 10 12 12 9 8 10 11 7 5 6 5 4 3 2 2 2 1 0 2 2 2 5 4 2 4 4 1 3 4 3 2 1 4 4 4 6 4 4 4 6 5 4 8 8 9 9 8 9 10 9 8 7 6 6 6 6
14 14 13 12 13 12 10 8 5 3 3 4 4 2 4 4 4 5 6 7 6 5 2 1 2 1 3 3 4 3 5 10 12 14 13 11 11 11 8 5 6 7 5 4 2 2 2 2 2 1 2 0 2 5 3 4 4 3 3 2 3 3 2 3 4 3 5 4 4 5 6 10 9 5 7 8 9 9 9 9 8 8 8 7 7 6 6 6
15 14 13 12 12 12 12 9 5 2 2 2 2 4 4 4 3 3 5 6 4 3 1 3 4 2 3 4 4 4 8 12 11 11 12 12 12 9 6 6 7 6 4 2 2 1 2 3 4 2 2 4 5 6 7 8 7 6 5 4 4 3 4 4 4 4 7 5 5 7 7 9 10 8 8 8 8 9 9 6 6 7 7 7 7 6 7 6
16 14 14 13 13 13 12 9 5 2 0 1 1 2 2 3 2 1 1 2 4 5 1 4 7 3 1 2 5 9 10 9 5 6 11 12 11 8 3 4 5 3 2 4 2 1 3 3 2 4 7 8 8 9 9 8 7 5 3 3 4 4 5 4 4 4 4 4 6 9 8 9 9 8 9 9 7 9 9 7 7 8 7 8 8 7 7 7
17 15 14 13 14 14 12 9 5 2 1 1 1 1 1 2 2 2 2 3 10 13 7 5 9 5 0 6 12 14 8 3 1 3 11 13 11 8 2 2 5 0 3 4 2 0 3 4 7 9 9 8 7 9 9 8 7 6 5 5 4 4 5 5 3 3 0 2 6 6 6 9 9 8 7 7 7 10 13 11 10 11 9 7 8 8 7 6
17 16 14 13 13 13 12 10 7 3 1 2 2 3 2 1 2 2 2 2 8 15 14 9 8 7 2 7 15 13 5 2 1 2 10 12 7 6 3 3 5 4 3 4 3 1 3 5 9 10 8 6 6 7 7 7 7 7 5 4 4 4 4 5 3 2 1 2 4 5 5 8 9 9 6 8 11 11 13 13 11 11 11 8 9 9 8 7
16 16 15 14 14 14 13 11 7 5 6 6 4 4 2 1 3 3 2 0 5 8 9 8 8 8 5 4 11 11 3 4 4 5 12 11 4 5 5 5 6 5 4 5 5 4 4 6 10 10 7 6 7 7 6 5 3 4 4 4 4 4 2 3 4 3 2 1 2 4 5 6 7 8 8 9 9 4 5 7 7 9 10 10 10 9 10 10
16 15 16 16 16 16 14 11 8 9 12 10 9 7 3 3 2 2 1 0 4 4 7 12 9 7 9 7 12 12 4 5 6 6 15 13 5 3 5 6 7 5 4 8 9 8 8 7 6 9 8 8 8 7 7 6 3 3 5 6 4 4 5 5 3 1 3 4 2 2 5 6 5 9 11 5 0 0 2 5 6 7 8 8 8 9 10 10
19 17 16 17 18 17 15 10 9 13 13 10 13 11 8 5 1 1 1 2 4 4 4 10 7 6 12 11 14 11 2 4 5 9 18 16 9 5 3 4 5 6 8 9 8 8 10 7 3 6 8 8 8 7 7 7 5 5 5 7 7 6 7 6 0 3 3 5 3 1 3 6 3 7 10 2 1 4 3 5 8 7 7 8 8 8 8 8
20 19 17 19 21 19 14 7 10 15 12 11 14 11 10 9 3 2 1 3 4 3 1 5 5 8 12 10 10 6 0 5 4 13 22 20 12 5 3 4 2 6 9 6 5 4 5 7 6 7 7 8 8 7 6 7 6 4 5 7 9 8 8 7 3 1 2 4 3 3 2 7 5 4 7 4 5 8 6 6 8 6 7 8 8 8 8 8
20 20 19 21 24 22 12 4 11 15 8 9 14 12 11 11 7 4 2 3 5 3 5 2 2 7 10 11 13 8 2 4 3 9 14 14 9 1 3 6 3 5 5 3 4 4 4 9 9 8 7 7 7 6 6 8 7 4 5 4 7 8 8 7 4 2 3 3 4 1 3 5 8 6 8 8 7 8 9 10 8 7 8 7 7 8 9 9
22 20 21 23 27 26 14 7 14 16 10 7 7 11 12 11 10 3 3 0 4 3 4 1 0 4 5 9 13 8 2 3 6 3 1 4 5 1 3 8 7 8 6 6 6 4 3 9 10 10 8 6 6 4 6 9 6 5 4 5 6 5 5 4 5 2 1 2 3 1 4 3 9 5 3 5 6 10 13 14 12 10 9 8 8 8 9 9
27 22 22 26 27 26 17 11 13 16 17 11 5 11 13 11 7 2 3 3 2 2 2 1 2 2 5 7 9 6 2 3 3 3 2 3 2 2 3 6 5 7 6 7 8 2 1 6 8 9 7 6 4 1 3 8 6 4 3 6 6 4 4 5 4 3 3 3 5 5 5 3 8 4 3 2 4 11 13 10 10 10 10 9 9 8 8 8
30 26 25 27 27 27 22 16 13 13 15 12 9 14 13 8 4 3 2 3 1 0 1 1 2 4 9 10 5 3 3 3 1 1 2 1 2 4 0 0 4 4 3 4 5 2 1 1 2 3 4 5 5 3 2 3 6 5 6 7 7 6 5 4 2 5 2 5 5 9 10 6 5 4 4 4 5 8 6 2 5 9 10 10 9 9 10 8
32 29 29 31 31 30 23 17 17 15 13 12 13 15 10 3 1 4 6 1 1 2 2 2 2 5 13 13 7 4 4 2 1 4 4 1 1 3 1 1 3 2 2 4 4 4 3 1 0 1 2 4 6 4 3 3 3 6 5 5 4 4 5 5 4 4 1 7 5 10 11 10 8 6 3 4 5 4 5 5 8 11 12 11 10 9 10 9
33 31 33 35 34 32 24 19 23 21 15 16 16 10 5 2 2 6 5 2 0 4 5 4 4 7 11 11 8 8 6 2 3 7 6 4 5 5 5 6 5 2 3 5 3 3 2 3 2 0 1 4 7 4 4 6 3 5 5 6 3 1 3 2 2 1 4 6 4 7 7 7 9 7 6 10 9 6 6 6 9 13 13 11 10 9 9 8
35 33 35 38 37 35 28 24 26 24 20 21 16 5 2 4 7 8 8 4 2 2 4 4 5 8 11 8 6 6 5 2 5 6 5 5 5 7 4 4 6 4 3 6 4 2 3 5 1 2 2 3 8 7 3 1 2 5 6 6 5 3 1 2 3 2 4 5 4 4 5 3 5 5 8 13 10 5 5 5 8 12 12 12 11 10 9 9
36 35 37 40 40 38 33 27 28 29 26 20 11 4 5 6 7 9 12 8 1 1 3 5 6 8 9 7 5 7 4 2 7 6 4 5 5 6 5 6 8 4 3 4 3 5 5 6 5 8 3 6 11 9 7 5 5 6 5 6 6 5 4 4 4 4 4 4 4 2 3 4 3 2 6 7 6 4 4 1 5 7 8 9 9 9 9 9
38 39 38 38 39 40 37 31 32 35 28 16 7 6 8 8 6 8 10 7 2 1 3 6 8 7 7 4 3 7 5 2 6 6 4 6 6 7 7 7 10 6 4 4 2 4 6 7 6 6 3 9 12 6 6 7 3 3 2 4 3 6 5 3 3 5 3 2 3 3 4 5 4 4 4 1 4 4 5 4 7 7 8 9 8 9 9 9
41 40 37 36 38 43 42 36 37 39 26 11 7 8 9 9 6 5 6 6 6 4 6 6 5 5 6 4 3 6 4 3 6 5 4 5 4 6 6 5 10 11 8 7 2 3 4 5 4 1 2 7 9 5 5 4 4 2 2 4 4 5 5 3 3 1 2 3 4 4 4 4 3 6 3 3 1 1 3 4 7 7 9 10 9 9 9 9
41 36 32 34 39 44 46 42 43 40 19 8 10 9 8 7 5 4 5 6 7 7 8 5 5 6 7 5 4 7 4 3 6 6 3 4 3 6 8 4 8 14 12 6 2 3 4 3 4 2 2 3 2 5 3 2 4 6 4 6 2 2 2 2 2 2 1 4 5 4 6 5 3 5 1 4 3 5 4 5 6 6 9 10 9 9 10 10
34 25 20 29 38 40 44 47 45 31 11 6 11 9 7 6 4 4 4 5 8 9 8 7 6 6 7 7 6 8 7 4 7 6 4 4 4 7 11 6 7 16 16 8 3 3 3 3 4 0 2 1 3 4 2 4 2 5 4 5 4 1 1 2 3 3 2 4 5 3 5 6 8 7 2 4 9 10 8 7 7 9 11 10 9 10 10 10
20 9 7 22 34 36 44 49 36 18 7 8 11 8 6 6 3 1 3 4 7 9 9 8 6 5 6 7 6 8 9 7 9 7 4 5 4 5 11 8 6 14 16 11 7 4 2 3 3 2 0 1 2 2 4 2 0 3 1 2 2 2 3 4 3 3 3 4 5 3 3 5 7 7 8 11 13 13 11 10 11 13 13 11 10 10 11 11
12 2 3 20 34 38 46 41 20 7 7 9 10 6 4 4 3 3 6 4 3 4 7 7 6 6 6 7 7 8 7 6 9 7 4 6 4 4 8 9 7 10 15 15 11 4 2 2 3 1 3 1 2 4 8 10 7 3 3 5 3 1 2 1 2 3 4 3 3 3 6 7 4 4 9 13 13 13 14 14 13 12 12 11 10 11 11 11
7 5 3 21 38 42 39 23 7 6 6 5 9 8 4 3 4 6 9 7 2 1 2 4 6 7 6 7 7 8 7 6 8 7 4 6 6 4 5 7 9 9 10 10 9 5 3 3 3 2 1 3 5 5 6 8 7 6 6 8 8 6 4 2 4 3 3 3 4 3 8 10 4 1 3 7 8 10 14 15 12 11 12 12 11 11 11 11
1 4 4 24 45 44 26 9 5 8 6 6 7 6 5 3 3 6 9 8 5 3 0 0 3 6 6 6 6 6 7 6 7 7 6 8 9 6 3 1 5 11 9 7 11 7 3 3 3 2 3 5 6 4 1 2 2 2 2 5 6 7 7 6 6 4 3 4 3 2 6 9 2 0 3 4 5 7 11 12 10 9 12 12 10 10 10 9
3 3 3 25 48 40 16 6 8 7 4 5 5 4 7 5 3 6 9 10 8 4 2 2 2 5 4 3 5 7 8 6 9 10 7 6 7 4 1 4 1 9 8 5 7 4 2 2 3 2 2 2 3 4 4 4 4 1 3 4 5 7 7 6 5 3 3 5 4 2 7 7 2 3 3 4 5 3 7 9 9 8 8 9 10 10 9 9
4 2 1 22 43 34 11 7 9 7 4 4 4 7 7 5 6 8 9 11 9 6 5 4 3 3 3 2 3 6 8 6 7 8 6 4 4 1 0 2 0 7 6 2 4 6 4 3 4 2 2 2 3 2 3 2 2 4 4 4 6 7 6 3 1 2 3 7 8 5 9 7 3 4 4 5 5 3 6 7 8 9 8 9 9 9 10 9
3 2 0 11 25 19 8 7 9 8 7 6 6 9 8 5 7 9 8 9 9 7 6 5 4 3 2 2 2 2 6 4 2 3 2 2 2 1 2 3 2 4 2 3 1 6 6 4 5 6 7 8 6 4 4 3 3 3 3 6 9 11 11 7 2 4 7 5 10 10 10 5 4 6 5 5 3 3 5 6 7 8 9 9 9 9 10 10
4 3 2 4 8 7 4 5 8 8 9 8 6 7 11 10 7 7 7 6 7 8 6 2 3 4 2 3 3 3 5 1 3 2 3 3 3 1 1 2 2 3 2 3 2 3 3 3 8 11 12 12 7 2 2 6 6 6 8 12 13 13 14 9 5 8 6 3 7 14 11 7 7 5 5 5 4 4 5 6 7 7 8 9 9 9 9 9
4 3 4 5 3 6 6 4 6 8 10 12 7 7 14 14 7 5 8 8 7 8 7 2 4 6 7 7 7 6 5 3 3 3 4 4 2 2 1 1 2 2 2 2 3 3 4 4 9 13 15 13 4 1 3 7 10 12 13 15 16 15 15 13 13 12 7 4 12 11 9 12 12 8 8 9 7 6 6 8 8 8 8 8 8 9 9 9
3 2 3 3 2 6 8 8 8 8 11 13 8 6 13 15 11 8 9 9 6 6 6 4 7 13 14 13 10 7 6 5 5 6 6 4 2 1 1 1 1 1 3 2 4 3 5 5 7 8 12 13 5 2 5 6 6 7 11 15 16 16 18 19 21 17 11 10 17 7 11 17 12 7 11 10 9 10 10 9 6 6 8 8 9 10 11 11
1 1 2 1 0 4 7 10 10 8 10 13 9 8 12 16 16 12 8 6 5 8 9 9 14 17 15 13 11 8 8 8 9 10 8 6 4 3 2 2 1 1 3 2 1 1 3 4 4 5 9 15 12 8 6 6 4 4 8 13 14 18 22 22 23 21 15 18 18 4 6 13 7 7 12 10 10 9 6 5 6 7 9 10 11 12 12 12
2 1 1 1 0 1 2 5 8 7 8 9 9 10 12 16 19 15 9 9 9 10 11 15 18 15 13 13 11 11 13 14 14 11 9 8 5 4 5 5 2 1 1 3 1 0 2 3 4 6 6 14 15 11 7 7 7 8 9 12 14 16 19 19 20 18 14 18 18 8 9 13 6 6 7 4 6 5 6 7 7 8 9 10 11 12 12 12
3 2 1 1 1 3 2 2 6 6 6 6 5 6 9 14 17 15 11 12 14 12 14 21 22 12 10 11 12 16 18 16 15 11 10 12 9 7 7 6 7 5 3 4 3 2 4 2 2 5 6 11 11 11 11 8 6 9 16 19 16 12 12 16 17 14 14 18 17 13 14 12 5 4 1 2 4 6 7 8 7 6 7 10 11 12 11 11
4 3 2 2 1 4 4 2 4 6 6 7 7 6 6 6 7 10 9 8 12 14 14 20 20 10 8 13 18 21 18 12 10 7 7 8 6 6 7 6 9 10 7 6 4 3 6 4 2 5 6 8 5 8 9 5 3 9 16 18 15 13 12 15 15 16 18 18 14 13 13 7 4 6 4 3 4 6 6 7 7 7 8 9 10 10 11 11
Wind_Direction
160 154 161 162 167 194 202 211 240 238 215 218 220 218 220 218 223 217 220 224 228 237 242 256 268 282 296 309 315 320 331 335 336 351 270 166 130 132 113 98 95 67 41 20 13 8 1 360 317 342 4 335 16 359 348 6 45 54 75 78 57 205 78 256 185 173 152 139 180 186 102 122 159 314 339 10 57 84 67 57 56 55 69 88 103 99 84 87
173 172 182 185 198 205 208 205 214 234 236 260 246 233 225 219 228 225 227 230 233 240 246 258 269 283 295 309 313 326 338 337 357 39 161 165 138 127 115 102 88 59 38 34 23 11 9 353 329 356 30 354 336 8 2 348 54 70 101 79 182 198 55 256 135 99 109 146 167 121 90 115 158 182 68 20 61 97 91 63 75 74 70 80 93 95 87 86
177 183 185 187 207 208 209 213 217 218 212 255 259 246 235 226 228 229 230 232 236 239 249 260 268 283 292 302 314 334 340 346 62 96 148 141 133 124 113 100 80 50 32 42 25 0 350 320 318 347 48 359 298 43 36 355 41 80 100 75 252 207 66 20 88 83 87 136 134 99 77 95 163 174 103 155 81 93 129 154 135 118 119 110 91 92 89 83
179 185 183 187 200 207 216 227 238 236 224 240 255 250 241 233 230 233 229 228 235 241 249 258 269 276 287 300 317 331 341 30 119 194 146 139 134 126 116 98 72 45 30 38 19 348 333 320 320 360 61 357 311 45 50 335 39 57 100 141 229 170 80 2 70 79 58 92 122 129 74 66 260 142 115 145 94 54 194 208 165 151 149 141 113 93 90 85
180 183 182 186 192 209 226 252 254 244 245 248 251 249 242 240 235 231 226 227 232 240 249 256 267 271 286 300 315 326 357 60 209 181 148 147 142 133 123 98 64 36 31 32 3 343 330 323 352 40 57 9 337 37 4 290 86 58 55 163 194 95 112 238 82 71 52 60 76 87 79 87 258 3 134 143 163 219 198 176 139 136 144 139 123 100 90 87
187 185 191 196 200 217 218 262 273 270 271 270 263 252 239 238 237 229 227 228 230 238 247 252 265 272 286 297 310 324 52 99 207 171 156 156 150 144 129 100 53 25 23 19 356 353 345 349 24 30 52 47 48 99 258 298 81 87 316 48 39 73 127 201 92 64 74 71 49 84 135 149 50 320 209 125 173 191 146 140 128 124 127 118 108 99 91 91
208 197 204 217 232 235 234 257 279 299 294 294 291 277 257 244 237 233 228 229 235 236 245 255 270 277 288 300 314 348 111 218 200 168 164 162 160 157 142 115 38 27 27 20 10 11 12 22 19 348 70 45 80 121 237 336 62 92 339 348 10 65 114 143 141 107 90 100 165 118 60 67 110 272 56 91 146 142 124 128 127 123 114 107 100 96 96 96
223 216 217 226 242 251 255 252 252 295 292 294 293 287 279 267 252 243 234 237 241 242 250 259 274 283 300 311 347 24 15 222 180 170 171 165 165 163 158 163 53 51 46 28 15 18 25 35 18 37 62 31 95 92 19 29 33 71 95 308 336 13 142 149 141 128 119 175 206 79 338 241 194 209 122 148 168 141 134 133 126 118 104 102 105 103 99 91
223 229 229 227 234 248 264 256 212 263 298 293 286 283 280 276 271 262 246 247 249 253 256 261 274 284 315 341 76 45 287 189 170 174 173 167 169 167 170 168 119 93 58 35 18 31 46 65 19 57 87 266 88 78 45 65 15 203 154 309 335 306 245 154 149 163 173 209 188 102 274 265 239 207 250 184 171 155 137 136 130 116 105 107 109 110 107 91
221 229 232 233 233 234 253 269 259 270 294 287 282 280 275 271 273 272 261 259 262 263 260 261 276 281 329 10 77 126 240 165 168 176 172 170 170 168 176 180 153 129 73 73 53 57 93 101 337 130 134 298 46 84 79 100 187 203 109 346 296 274 274 177 184 195 182 214 185 173 239 279 295 196 235 198 170 159 137 145 141 120 122 123 111 111 109 96
224 227 230 233 225 189 208 269 275 274 289 293 285 284 282 268 262 266 262 261 260 262 262 264 283 290 337 58 103 187 200 166 169 170 169 171 172 177 183 189 178 158 127 84 75 73 87 37 11 59 109 37 45 43 32 109 164 139 75 343 297 288 293 226 211 212 171 221 184 160 228 295 1 250 222 177 165 162 147 155 147 128 136 130 120 114 106 99
225 227 230 230 216 177 199 264 273 277 290 295 288 300 301 272 248 242 240 245 248 246 254 263 285 294 8 76 170 212 194 176 170 165 171 174 177 185 182 182 174 156 131 94 98 75 52 14 44 67 173 118 84 51 7 245 133 106 87 335 299 334 314 241 219 201 161 190 169 133 336 304 246 236 197 155 159 160 150 158 152 142 145 134 127 117 107 105
228 226 228 229 222 204 219 259 266 275 285 290 299 316 310 282 245 224 221 222 208 210 236 247 261 301 77 137 235 213 196 181 169 168 174 179 182 181 177 179 167 151 130 104 113 72 39 15 71 90 173 107 122 166 129 231 97 358 54 138 306 358 318 259 217 172 153 166 151 122 329 278 254 233 165 153 157 148 151 169 162 150 151 144 136 121 113 111
236 235 230 226 224 220 223 242 253 266 278 291 313 313 303 290 245 214 203 192 178 191 209 195 192 129 100 250 250 200 192 176 172 176 173 177 171 158 155 160 156 149 140 112 118 35 33 120 73 72 38 102 146 173 35 13 64 327 357 40 354 11 288 296 294 153 154 189 125 111 193 259 276 250 176 173 164 154 163 179 171 162 161 154 143 131 123 117
241 241 239 226 218 217 217 223 237 260 278 297 317 315 310 293 233 206 187 176 166 176 182 183 181 129 69 282 263 185 184 179 182 179 170 172 161 143 139 138 137 128 132 136 140 161 139 114 81 90 321 12 79 74 19 351 356 82 63 323 330 165 265 312 11 155 157 210 115 116 184 264 273 230 192 188 174 165 169 182 179 170 168 161 155 141 132 125
243 240 241 229 214 212 214 216 228 255 270 299 322 322 323 249 195 179 169 163 160 158 134 123 175 140 76 273 215 168 191 198 185 173 170 175 173 149 134 125 111 105 111 107 109 136 126 80 66 119 120 45 83 89 45 8 336 350 133 244 260 185 266 318 310 203 156 131 183 181 200 263 267 207 190 194 187 178 175 189 187 179 176 167 163 151 146 138
243 241 241 229 217 213 212 216 232 258 270 312 328 329 31 144 157 157 149 142 146 143 115 79 137 151 294 221 173 205 198 183 174 173 173 169 166 150 132 119 115 113 102 88 88 97 70 58 86 122 76 86 125 99 63 3 298 313 168 229 249 206 220 280 294 274 146 135 202 227 229 245 262 208 192 198 190 187 192 196 192 183 178 173 167 158 156 148
241 245 244 229 218 212 207 212 226 263 310 341 343 46 102 115 128 133 135 135 121 98 60 353 117 156 260 215 185 197 167 163 167 171 171 155 149 149 134 123 131 115 86 58 36 64 40 24 88 85 23 29 169 116 125 218 209 211 191 210 261 252 224 213 256 247 155 158 203 207 239 251 260 243 211 209 192 197 210 201 193 184 174 176 170 163 164 148
237 243 245 230 217 214 205 203 211 242 331 1 61 95 91 85 93 115 134 138 124 111 184 214 165 150 241 213 162 116 129 149 157 167 171 155 149 156 140 127 126 106 88 69 334 136 114 43 62 108 213 217 200 171 188 205 186 185 182 167 191 232 268 231 237 227 167 173 225 210 226 246 250 242 224 219 199 205 221 203 187 185 176 175 171 168 160 144
234 238 243 227 217 220 205 189 192 198 294 111 90 79 101 91 69 298 190 177 215 213 201 191 192 180 75 149 124 118 124 132 137 171 179 168 153 147 119 101 99 71 108 150 211 226 126 129 172 194 209 211 202 197 205 208 200 209 214 209 198 203 266 261 245 255 164 162 238 226 228 246 249 241 225 213 198 208 222 211 197 191 183 178 173 166 150 145
231 231 240 228 217 216 194 176 176 156 114 172 344 3 163 151 144 201 219 243 250 249 265 227 208 233 109 152 153 143 129 101 53 173 177 173 152 140 144 105 107 164 216 157 153 350 134 181 218 217 214 206 199 204 213 220 226 237 235 243 248 218 248 264 242 259 198 182 258 260 254 259 259 253 234 195 190 213 213 207 204 194 187 181 169 160 146 144
229 227 229 227 216 203 181 173 172 154 206 239 254 263 270 270 111 104 153 255 265 244 245 248 234 259 260 168 172 160 114 87 118 211 177 167 154 158 183 128 135 204 212 122 90 149 197 228 230 223 217 203 217 225 214 215 218 227 226 218 249 248 256 295 310 311 338 188 258 284 275 266 266 266 244 197 201 218 214 208 204 190 182 178 169 158 149 150
226 223 222 224 212 191 176 178 184 200 227 228 224 227 264 31 86 61 113 129 291 239 225 234 230 231 220 187 184 175 153 152 163 229 189 162 157 179 156 146 172 189 169 153 158 173 209 243 229 215 206 198 228 247 223 216 214 202 195 180 232 249 229 275 299 297 281 211 245 288 287 268 269 275 255 219 211 222 218 208 196 183 181 178 172 162 156 159
221 217 220 218 200 183 179 188 208 223 223 228 237 223 173 138 118 54 92 90 278 256 214 207 207 208 202 196 184 180 202 186 160 198 191 168 142 162 159 165 175 172 192 196 187 196 215 227 206 186 195 201 215 239 217 209 248 233 192 183 209 222 209 233 268 312 329 332 304 321 314 278 246 249 252 253 235 190 168 172 176 182 180 165 159 161 163 163
219 215 219 209 188 179 186 200 222 219 212 228 244 227 192 196 273 345 68 4 265 279 244 204 203 204 192 180 176 173 198 224 186 175 183 177 154 144 179 178 163 185 206 201 196 223 231 225 172 161 195 207 206 224 206 186 221 262 229 202 205 210 219 233 210 67 3 322 287 112 309 282 262 243 252 278 148 218 205 180 186 177 164 160 159 164 165 162
220 215 215 201 181 178 191 211 215 205 201 229 241 227 203 206 239 259 127 28 275 260 160 183 188 187 179 163 159 139 59 249 201 160 173 183 177 141 163 182 152 197 198 188 202 241 218 196 192 179 188 201 208 227 215 179 180 244 245 205 203 212 221 221 185 116 247 265 277 111 171 273 292 260 252 236 203 225 226 212 204 180 172 172 166 165 163 161
216 215 211 196 179 181 194 200 189 185 187 237 240 227 214 201 208 244 76 28 283 194 142 189 192 170 168 163 153 132 215 228 110 149 172 186 197 110 159 186 173 194 178 148 232 257 162 173 194 190 180 193 204 222 215 171 153 232 250 183 184 205 213 207 170 167 223 256 314 43 122 277 281 251 237 222 215 242 240 224 214 195 188 178 166 166 165 164
211 211 209 193 182 187 190 158 169 181 197 227 232 217 211 195 198 219 83 150 269 131 132 241 152 138 141 161 159 145 215 161 116 187 188 160 197 352 201 199 181 188 177 159 215 267 153 171 188 185 182 196 202 214 194 157 149 244 237 133 137 168 171 142 119 125 329 352 304 249 118 276 276 257 226 212 216 247 245 227 212 199 190 181 174 170 163 163
211 206 206 190 184 193 193 176 174 191 212 219 216 201 189 178 182 87 78 205 245 98 122 138 126 131 121 150 174 158 66 51 130 226 13 109 172 49 196 206 164 180 203 198 209 248 155 186 182 169 180 199 194 206 169 162 177 216 145 87 67 69 76 78 97 94 37 323 243 200 155 227 271 247 147 140 215 238 248 233 205 194 190 187 178 172 166 160
213 205 201 187 188 198 200 210 207 195 206 209 189 179 165 157 156 112 182 218 213 102 48 121 159 166 151 153 183 164 92 38 41 96 64 96 17 21 220 192 85 145 233 271 238 244 340 236 170 148 173 175 143 87 65 178 175 139 90 60 43 26 32 42 53 82 58 277 228 186 179 185 269 267 178 189 220 227 244 232 183 187 189 189 181 175 172 162
216 206 199 191 194 195 192 212 209 188 194 184 159 157 150 120 117 176 202 226 3 178 125 168 187 153 160 160 168 171 120 62 141 143 146 143 57 36 49 83 71 85 299 296 291 313 352 359 221 176 160 122 100 80 16 8 113 107 87 82 65 356 11 20 2 62 187 259 220 187 185 181 226 261 222 238 262 240 221 200 188 189 189 188 181 176 173 164
218 211 202 198 199 194 192 202 190 182 192 170 146 145 145 139 214 217 207 90 8 195 153 178 190 162 168 168 173 172 146 143 181 167 166 161 174 187 188 190 171 155 245 233 257 317 305 230 210 30 229 140 114 98 12 360 31 93 103 108 115 303 1 360 315 143 222 257 240 192 182 193 232 255 264 264 265 247 234 217 189 184 185 182 175 170 168 164
218 215 207 204 202 198 200 200 185 183 186 164 147 142 149 180 205 212 206 183 200 197 138 143 166 162 165 170 183 169 142 171 179 172 173 152 178 212 233 228 191 177 200 191 190 213 277 296 215 147 283 195 153 155 177 258 177 148 140 140 158 176 195 249 244 246 250 265 269 196 171 227 272 273 252 255 258 257 271 249 190 178 178 173 167 162 159 164
217 215 211 208 207 205 203 198 189 183 174 158 151 163 174 203 208 201 210 214 198 90 117 130 139 151 169 182 187 167 157 201 171 156 155 147 173 217 235 240 216 186 104 150 180 180 212 286 206 177 212 189 181 186 168 142 159 180 159 145 162 165 173 209 208 221 248 273 283 239 169 198 221 248 240 255 284 319 325 273 149 147 157 152 148 154 159 167
216 213 214 209 207 207 202 197 192 181 167 154 161 178 185 206 206 201 211 206 177 104 109 125 128 145 191 222 215 178 167 183 171 156 162 174 188 201 202 213 204 176 135 176 216 164 197 261 228 189 170 169 183 192 132 112 145 223 129 118 184 185 178 215 210 185 190 292 273 213 220 216 209 255 247 268 328 1 27 73 118 126 139 140 149 163 168 171
211 210 211 206 206 206 199 194 188 179 168 155 170 189 204 208 193 188 197 184 178 148 117 123 131 155 198 217 229 203 169 106 161 170 196 201 211 201 195 205 193 189 186 180 182 156 180 275 265 121 84 175 181 167 141 151 180 179 146 179 203 175 165 212 277 53 104 270 260 195 240 288 296 267 230 112 26 7 60 107 134 146 150 154 168 174 174 177
207 205 206 206 208 204 196 190 182 176 171 167 183 195 209 215 192 170 181 174 164 147 141 168 177 170 188 192 202 201 174 109 164 177 188 197 228 203 193 209 190 196 206 192 197 194 168 253 270 142 164 234 160 110 77 9 136 132 183 201 161 67 97 142 266 336 52 256 269 202 224 254 236 252 288 103 196 230 216 175 151 159 168 173 180 176 178 179
205 202 206 210 207 198 191 186 178 174 171 176 199 211 205 210 196 167 179 162 152 163 182 205 191 170 180 186 190 188 181 170 173 181 182 192 242 199 182 195 191 196 207 203 228 245 163 219 280 67 166 273 35 110 79 347 102 135 191 193 129 121 214 138 187 235 212 247 281 256 234 228 209 217 199 186 211 215 209 190 176 183 186 186 184 177 177 174
203 193 224 211 201 192 187 183 177 174 175 179 204 223 205 204 207 201 224 179 159 177 198 208 192 177 186 180 170 179 190 183 167 175 186 189 234 204 175 183 196 198 199 190 204 229 160 206 258 330 307 189 46 148 178 222 312 67 85 176 130 147 180 165 179 185 178 231 268 293 278 237 221 203 181 197 211 202 190 191 196 196 191 188 183 179 179 178
193 193 247 192 193 190 182 179 178 184 187 187 204 210 180 185 198 259 264 227 154 183 204 203 185 183 195 180 165 173 191 187 169 180 202 185 207 232 186 180 183 193 192 190 199 200 142 230 232 320 333 196 177 204 189 183 182 151 145 179 185 136 118 178 217 159 144 196 238 273 278 260 242 199 187 200 208 195 187 193 201 197 189 188 187 184 183 181
185 228 195 171 182 181 173 173 189 192 186 199 214 213 194 177 175 217 248 253 268 306 201 195 192 194 193 181 176 175 179 184 177 186 214 198 200 229 206 187 177 172 173 188 205 197 169 202 185 161 252 210 222 246 213 189 182 176 182 189 187 172 153 196 246 202 153 197 195 204 270 266 241 200 222 216 214 200 191 194 196 188 185 189 190 187 185 182
208 240 172 167 174 170 163 181 199 181 191 195 203 207 190 185 169 186 214 234 248 267 307 235 208 203 199 193 191 174 166 180 188 190 209 210 204 208 239 293 175 164 152 180 207 199 144 128 160 196 213 212 237 275 276 154 119 105 198 195 187 187 177 188 225 212 176 220 184 143 274 276 261 319 298 280 262 224 198 193 187 182 184 187 187 183 182 182
244 244 155 169 172 165 162 210 190 185 209 172 170 187 180 186 187 178 194 208 216 214 207 235 208 200 211 201 183 176 175 185 196 198 205 213 211 207 262 346 161 167 159 183 206 185 99 130 180 246 320 335 300 329 13 44 73 95 233 186 183 207 197 192 207 178 183 215 174 157 262 269 316 330 310 314 306 220 183 183 174 172 180 183 181 176 177 179
214 232 132 175 176 171 172 203 190 195 193 145 173 196 190 198 199 192 192 196 199 199 203 218 201 191 212 183 154 182 191 195 208 208 198 198 214 212 7 341 229 173 174 197 189 172 177 173 157 202 284 321 327 328 333 340 163 212 225 181 192 205 193 201 136 102 239 210 163 185 246 244 291 330 341 344 352 104 159 176 168 167 177 180 179 174 176 176
171 203 43 183 187 186 190 196 192 194 181 166 187 193 190 205 211 207 196 190 198 200 202 212 185 157 164 145 104 196 201 186 185 203 174 185 233 355 23 356 24 166 203 333 174 176 181 169 162 187 220 232 231 215 209 194 180 214 190 179 201 198 190 203 196 209 238 185 157 205 241 252 302 319 328 330 348 122 161 173 172 177 178 175 175 175 177 176
175 207 190 180 204 221 237 204 190 188 180 176 185 193 197 205 210 205 201 204 209 199 194 177 151 149 141 158 175 213 216 165 89 144 182 196 229 300 5 12 59 133 150 21 28 141 134 174 196 199 216 227 228 234 179 142 155 199 194 191 203 202 195 198 215 225 215 134 202 224 229 250 265 260 263 257 226 200 184 174 180 185 177 174 175 174 175 175
200 220 186 163 192 228 255 262 205 190 183 180 178 184 197 206 203 180 200 216 208 196 202 180 160 187 199 201 212 214 200 166 121 169 185 183 222 305 319 90 60 63 104 46 358 77 115 204 213 208 227 236 218 139 183 165 181 198 195 197 203 201 195 195 218 220 149 152 246 227 193 232 241 217 226 228 207 212 212 197 194 182 173 173 167 162 165 166
211 231 213 189 174 204 224 234 218 206 189 181 180 181 193 203 198 179 200 211 195 187 199 203 207 210 209 207 213 218 203 190 206 212 195 171 173 247 328 4 96 53 63 27 348 73 131 217 215 200 237 251 243 191 189 187 205 202 200 207 203 197 197 201 218 217 163 202 245 212 178 225 233 208 223 217 197 205 205 195 182 161 162 163 159 163 167 168
208 283 276 267 209 200 212 208 199 206 197 183 187 194 189 199 204 199 193 182 188 202 197 208 218 212 208 205 199 207 207 200 220 223 202 185 172 157 205 254 190 101 99 107 329 90 151 229 207 180 239 253 246 229 189 178 220 229 217 218 209 203 203 204 218 218 201 223 240 208 209 242 228 204 222 213 201 202 180 159 150 154 168 167 166 172 173 176
185 237 270 44 302 229 234 193 172 189 205 190 196 205 196 200 204 203 190 171 185 198 194 214 225 209 200 204 196 210 213 202 216 219 180 176 193 177 201 211 155 80 118 145 160 270 192 218 178 161 235 252 241 231 208 189 214 237 236 227 218 213 209 212 223 219 212 234 240 236 263 265 232 206 229 209 183 159 137 164 172 169 175 171 173 178 177 183
132 96 127 114 221 199 193 176 161 181 206 193 198 213 209 212 207 200 199 193 193 189 185 209 222 209 195 203 203 220 223 210 218 218 174 181 200 187 198 194 148 142 168 164 157 163 179 212 139 148 222 250 230 214 216 206 209 248 252 239 222 208 208 217 224 214 208 226 232 232 249 254 205 154 81 77 149 156 163 179 176 174 183 180 181 182 181 188
128 86 105 115 233 205 180 169 170 188 204 192 192 201 206 229 217 196 199 208 208 203 195 207 214 200 188 205 212 224 228 213 217 221 179 189 198 169 185 188 163 163 169 168 170 165 169 186 179 167 217 257 224 184 194 192 206 248 253 240 214 198 210 222 224 219 213 214 218 224 233 231 141 130 134 132 167 182 185 181 174 179 188 195 194 186 185 195